Spokane, WA

8:09 PM PDT on August 28, 2016 (GMT -0700)
Felts

Weather History for KSFF - August, 2014

Change the Weather History Date:

Thursday, August 14, 2014

  Actual Average Record
Temperature  
Mean Temperature 71 °F 70 °F  
Max Temperature 78 °F 85 °F 100 °F (2004)
Min Temperature 63 °F 55 °F 48 °F (2005)
Degree Days  
Heating Degree Days 0 0  
Month to date heating degree days 0 0  
Since 1 June heating degree days 83 139  
Since 1 July heating degree days 4 21  
Cooling Degree Days 6 5  
Month to date cooling degree days 160 89  
Year to date cooling degree days 524 307  
Since 1 June cooling degree days 519 300  
Growing Degree Days 20 (Base 50)    
Moisture  
Dew Point 56 °F    
Average Humidity 62    
Maximum Humidity 78    
Minimum Humidity 46    
Precipitation  
Precipitation 0.07 in 0.02 in 0.07 in (2014)
Month to date precipitation 0.14 0.26  
Year to date precipitation 10.78 10.30  
Sea Level Pressure  
Sea Level Pressure 29.96 in    
Wind  
Wind Speed 4 mph (North)    
Max Wind Speed 15 mph    
Max Gust Speed 19 mph    
Visibility 10 miles    
Events Rain    
T = Trace of Precipitation, MM = Missing Value Source: NWS Daily Summary

Daily Weather History Graph

Daily Weather History Graph

Search for Another Location

Airport or City:

Trip Planner

Search our weather history database for the weather conditions in past years. The results will help you decide how hot, cold, wet, or windy it might be!

Date:

Astronomy

Aug. 14, 2014 Rise Set
Actual Time 5:43 AM PDT 8:03 PM PDT
Civil Twilight 5:09 AM PDT 8:37 PM PDT
Nautical Twilight 4:26 AM PDT 9:19 PM PDT
Astronomical Twilight 3:38 AM PDT 10:07 PM PDT
Moon 10:03 PM PDT (8/14) 10:49 AM PDT (8/14)
Length of Visible Light 15h 27m
Length of Day
14h 19m
Waning Gibbous, 78% of the Moon is Illuminated
Aug 14
Waning Gibbous
Aug 17
Last Quarter
Aug 25
New
Sep 2
First Quarter
Sep 8
Full

Hourly Weather History & Observations

Time (PDT) Temp. Dew Point Humidity Pressure Visibility Wind Dir Wind Speed Gust Speed Precip Events Conditions
12:53 AM 68.0 °F 55.9 °F 65% 29.88 in 10.0 mi Calm Calm - N/A   Partly Cloudy
1:53 AM 66.9 °F 57.0 °F 70% 29.88 in 10.0 mi NNE 3.5 mph - N/A   Partly Cloudy
2:53 AM 66.9 °F 57.0 °F 70% 29.90 in 10.0 mi NNE 4.6 mph - N/A   Mostly Cloudy
3:53 AM 63.0 °F 61.0 °F 93% 29.92 in 3.0 mi NNE 3.5 mph - 0.05 in Rain Rain
4:53 AM 64.0 °F 57.9 °F 80% 29.93 in 10.0 mi Variable 3.5 mph - 0.02 in   Scattered Clouds
5:53 AM 64.0 °F 55.9 °F 75% 29.94 in 10.0 mi SSW 10.4 mph - N/A   Scattered Clouds
6:53 AM 64.0 °F 57.0 °F 78% 29.97 in 10.0 mi South 5.8 mph - N/A   Scattered Clouds
7:53 AM 64.0 °F 55.9 °F 75% 29.98 in 10.0 mi Calm Calm - N/A   Scattered Clouds
8:42 AM 64.9 °F 55.9 °F 73% 30.04 in 10.0 mi South 11.5 mph - N/A   Overcast
8:53 AM 64.9 °F 55.9 °F 73% 30.00 in 10.0 mi SSW 10.4 mph - N/A   Overcast
9:43 AM 66.0 °F 55.9 °F 70% 30.03 in 10.0 mi Calm Calm - N/A   Overcast
9:53 AM 66.0 °F 55.0 °F 68% 30.00 in 10.0 mi SW 3.5 mph - N/A   Overcast
10:53 AM 68.0 °F 55.0 °F 63% 30.01 in 10.0 mi Variable 3.5 mph - N/A   Overcast
11:53 AM 70.0 °F 55.0 °F 59% 29.99 in 10.0 mi West 3.5 mph - N/A   Mostly Cloudy
12:53 PM 72.0 °F 55.0 °F 55% 29.99 in 10.0 mi NNW 3.5 mph - N/A   Mostly Cloudy
1:53 PM 73.0 °F 55.0 °F 53% 29.99 in 10.0 mi Calm Calm - N/A   Mostly Cloudy
2:53 PM 75.0 °F 55.0 °F 50% 29.97 in 10.0 mi Variable 4.6 mph - N/A   Overcast
3:53 PM 75.9 °F 55.0 °F 48% 29.95 in 10.0 mi Variable 5.8 mph - N/A   Scattered Clouds
4:53 PM 75.9 °F 54.0 °F 46% 29.93 in 10.0 mi Calm Calm - N/A   Scattered Clouds
5:53 PM 77.0 °F 55.0 °F 47% 29.92 in 10.0 mi Variable 6.9 mph - N/A   Clear
6:53 PM 75.2 °F 55.4 °F 50% 29.95 in 10.0 mi NNW 4.6 mph - N/A   Clear
7:53 PM 72.0 °F 57.0 °F 59% 29.93 in 10.0 mi North 3.5 mph - N/A   Clear
8:53 PM 71.1 °F 59.0 °F 66% 29.95 in 10.0 mi NE 3.5 mph - N/A   Clear
9:53 PM 68.0 °F 59.0 °F 73% 29.95 in 10.0 mi North 3.5 mph - N/A   Clear
10:53 PM 66.0 °F 59.0 °F 78% 29.94 in 10.0 mi Calm Calm - N/A   Partly Cloudy
11:53 PM 66.9 °F 59.0 °F 76% 29.95 in 10.0 mi East 5.8 mph - N/A   Mostly Cloudy